Simultaneous Nadir Overpasses (SNOs) Predictions

Prediction of SNOs between GOES-16 and METOP-C Satellite Orbit:

Table of predicted SNOs for the next 14.0 days since TLE Epoch: 4/1/2020
Index Date Time (GOES-16) GOES-16 Lat,Lon METOP-C Lat,Lon Distance(km) Time Diff (sec)
1 04/01/2020 14:44:36 -0.02, -75.15 0.65, -78.17 343.67 4
2 04/02/2020 14:25:13 -0.03, -75.15 -0.44, -73.17 225.75 80
3 04/04/2020 02:44:14 0.02, -75.14 -0.55, -77.77 299.21 80
4 04/05/2020 02:20:55 0.02, -75.15 0.54, -72.77 270.69 80
5 04/06/2020 14:39:47 0.01, -75.18 0.48, -77.33 245.16 80
6 04/07/2020 14:21:48 0.02, -75.19 -0.61, -72.33 325.27 80
7 04/09/2020 02:40:49 -0.02, -75.19 -0.39, -76.94 198.53 80
8 04/10/2020 02:17:29 -0.01, -75.20 0.70, -71.94 371.64 80
9 04/11/2020 14:39:02 0.00, -75.24 0.31, -76.50 144.21 80
10 04/12/2020 14:15:43 -0.01, -75.26 -0.84, -71.51 426.30 80
11 04/14/2020 02:37:25 0.01, -75.26 -0.17, -76.12 96.84 80




NCC Satellite Simultaneous Nadir Overpasses (SNOs) Prediction Service
